Weather WX

World > North America > United States > Mississippi

Pinedale, Mississippi Regional Weather

Lat: 34.42N, Lon: 89.2W
Wx Zone: MSZ014
Feedback

Pinedale, MS Regional Weather

Expires:201906260500;;087005
ASUS44 KJAN 260410
RWRMS 

MISSISSIPPI HOURLY WEATHER ROUNDUP
NATIONAL WEATHER SERVICE JACKSON MS
1100 PM CDT TUE JUN 25 2019

NOTE: "FAIR: INDICATES FEW OR NO CLOUDS BELOW 12,000 FEET WITH NO
SIGNIFICANT WEATHER AND/OR OBSTRUCTIONS TO VISIBILITY.


MSZ003>006-009-014>017-022>024-029>033-037>039-260500-
NORTHEAST MISSISSIPPI
  
CITY           SKY/WX    TMP DP  RH WIND       PRES   REMARKS
ABERDEEN       FAIR      73  73 100 S3        30.12S                  
COLUMBUS AFB   MOCLDY    78  71  81 SW7       30.11S                  
CORINTH        FAIR      77  73  88 SE3       30.08F                  
GOLDN TRIANGLE FAIR      78  69  73 SW6       30.12S                  
STARKVILLE     FAIR      73  66  78 CALM      30.14R                  
TUPELO         FAIR      79  74  84 SW6       30.09F                  
$$


SKY/WX - Weather  TMP - Temperature  DP - Dew Point  RH - Relative Humidity
WIND - Wind Direction/Speed PRES - Barometric Pressure VSB - Visibility
WCI - Wind Chill Index E13G22 Wind - East Wind 13 mph/Gusts of 22 mph